Tracking 29892 objects as of 21-Nov-2024
HD Live streaming from Space Station
objects crossing your sky now

COSMOS 1823 DEB

Track COSMOS 1823 DEB now!
10-day predictions


NORAD ID: 29359
Int'l Code: 1987-020EA
Perigee: 1,485.4 km
Apogee: 1,532.6 km
Inclination: 73.6 °
Period: 116.0 minutes
Semi major axis: 7880 km
RCS: 0.0053 m2 (small)
Launch date: February 20, 1987
Source: Commonwealth of Independent States (former USSR) (CIS)
Launch site: PLESETSK MISSILE AND SPACE COMPLEX (PKMTR)

Note: This is SATELLITE DEBRIS
Your satellite tracking list
Your tracking list is empty




NASA's NSSDC Master Catalog

Two Line Element Set (TLE):
1 29359U 87020EA  24323.70731219 -.00000030  00000-0 -92017-4 0  9997
2 29359  73.6127 115.9098 0029953 337.5061  34.9315 12.41118545457476
Source of the keplerian elements: AFSPC